Location: Bratislava
(48.1500°N, 17.1170°E)
Time: 11:09:48
(UTC+01:00)

ISS - Pass Details

Date: 24 February 2019
Orbit: 406 x 411 km, 51.6° (Epoch: 22 March)

Event Time Altitude Azimuth Distance (km) Brightness Sun altitude
Rises 05:37:03 0° 207° (SSW) 2,314 -0.2 -11.7°
Reaches altitude 10° 05:39:27 10° 190° (S) 1,459 -1.1 -11.3°
Maximum altitude 05:41:57 21° 140° (SE) 985 -1.3 -10.9°
Drops below altitude 10° 05:44:30 10° 89° (E) 1,468 0.6 -10.5°
Sets 05:46:54 0° 73° (ENE) 2,333 1.5 -10.1°
